This is the latest recevied weather packets stored in our database for station/object KJ7HSW. If no packets are shown the sender has not sent any weather packets the latest 10 day(s).
| Time | Temp. | Humidity | Pressure | Rain* | Wind** | Luminosity | Snow |
|---|---|---|---|---|---|---|---|
| 1787781936 | 23.89° C | 63% | 1015.2 hPa | 0 mm | - | 621 W/m² | - |
| 1787781631 | 24.44° C | 60% | 1015.4 hPa | 0 mm | - | 634 W/m² | - |
| 1787781328 | 25° C | 59% | 1015.4 hPa | 0 mm | - | 637 W/m² | - |
| 1787781027 | 24.44° C | 60% | 1015.5 hPa | 0 mm | - | 644 W/m² | - |
| 1787780722 | 24.44° C | 59% | 1015.5 hPa | 0 mm | - | 657 W/m² | - |
| 1787780421 | 23.89° C | 62% | 1015.6 hPa | 0 mm | - | 668 W/m² | - |
| 1787780117 | 23.89° C | 62% | 1015.4 hPa | 0 mm | - | 556 W/m² | - |
| 1787779812 | 23.89° C | 62% | 1015.6 hPa | 0 mm | - | 391 W/m² | - |
| 1787779511 | 24.44° C | 60% | 1015.6 hPa | 0 mm | - | 760 W/m² | - |
| 1787779206 | 24.44° C | 59% | 1015.7 hPa | 0 mm | - | 703 W/m² | - |
| 1787778905 | 23.89° C | 61% | 1015.6 hPa | 0 mm | - | 694 W/m² | - |
| 1787778602 | 23.89° C | 62% | 1015.6 hPa | 0 mm | - | 691 W/m² | - |
| 1787778297 | 24.44° C | 62% | 1015.6 hPa | 0 mm | - | 697 W/m² | - |
| 1787777992 | 23.89° C | 60% | 1015.7 hPa | 0 mm | - | 702 W/m² | - |
| 1787777681 | 23.89° C | 62% | 1015.7 hPa | 0 mm | - | 711 W/m² | - |
| 1787777378 | 23.89° C | 62% | 1015.6 hPa | 0 mm | - | 705 W/m² | - |
| 1787777077 | 23.89° C | 63% | 1015.8 hPa | 0 mm | - | 713 W/m² | - |
| 1787776776 | 23.89° C | 62% | 1015.8 hPa | 0 mm | - | 714 W/m² | - |
| 1787776475 | 23.89° C | 62% | 1015.8 hPa | 0 mm | - | 696 W/m² | - |
| 1787776172 | 23.33° C | 65% | 1015.9 hPa | 0 mm | - | 741 W/m² | - |
| 1787775867 | 23.89° C | 61% | 1015.8 hPa | 0 mm | - | 563 W/m² | - |
| 1787775563 | 23.89° C | 61% | 1016 hPa | 0 mm | - | 695 W/m² | - |
| 1787775261 | 23.89° C | 62% | 1016 hPa | 0 mm | - | 713 W/m² | - |
| 1787774961 | 23.89° C | 61% | 1015.8 hPa | 0 mm | - | 714 W/m² | - |
| 1787774660 | 23.89° C | 61% | 1015.9 hPa | 0 mm | - | 714 W/m² | - |
* Rain latest hour (hover to see other rain measurements)
** Current wind speed in m/s (hover to see current wind gust speed)